www.pogodaiklimat.ru
ПОГОДА в Карымской
Время
(UTC), дата
09 12.01
12 12.01
15 12.01
18 12.01
21 12.01
00 13.01
03 13.01
06 13.01
09 13.01
12 13.01
15 13.01
18 13.01
21 13.01
00 14.01
03 14.01
06 14.01
09 14.01
12 14.01
15 14.01
18 14.01
21 14.01
00 15.01
03 15.01
06 15.01
09 15.01
12 15.01
15 15.01
18 15.01
21 15.01
00 16.01
03 16.01
06 16.01
09 16.01
12 16.01
15 16.01
18 16.01
21 16.01
00 17.01
03 17.01
06 17.01
09 17.01
12 17.01
15 17.01
18 17.01
21 17.01
00 18.01
03 18.01
06 18.01
09 18.01
12 18.01
15 18.01
18 18.01
21 18.01
00 19.01
03 19.01
06 19.01
Ветер
(напр.,м/с)
Видим. Явления Облачность Т
(С)
Тd
(С)
f
(%)
Тe
(С)
Тes
(С)
Комфортность P
(гПа)
Po
(гПа)
Тmin
(С)
Tmax
(С)
R
(мм)
R24
(мм)
S
(см)
З 2 н/о 2 балла -14.3 -21.1 56 -19 -19 1027.6 948.0
З 1 н/о ясно -19.0 -22.9 71 -22 -22 1030.6 949.3 -11.6
штиль 0 н/о ясно -23.8 -26.5 78 -24 -24 1032.2 949.3
штиль 0 н/о ясно -25.9 -28.9 76 -26 -26 1032.9 949.3
З 2 н/о ясно -26.8 -30.0 74 -34 -34 опасность
обморожения
1033.3 949.3
З 1 н/о ясно -28.9 -32.3 72 -33 -33 опасность
обморожения
1035.5 950.7 -29.7 1
ЮЗ 1 50 км ясно -25.2 -28.5 74 -29 -27 1034.2 950.7 -29.8
штиль 0 50 км ясно -14.6 -22.0 53 -15 -13 1029.2 949.3
штиль 0 н/о ясно -17.8 -22.9 64 -18 -18 1030.2 949.3
штиль 0 н/о ясно -23.5 -26.5 76 -24 -24 1032.1 949.3 -13.4
штиль 0 н/о ясно -26.2 -29.4 74 -26 -26 1033.1 949.3
штиль 0 н/о ясно -28.4 -31.8 72 -28 -28 1033.8 949.3
штиль 0 н/о 2 балла -30.5 -34.0 71 -31 -31 опасность
обморожения
1034.6 949.3
штиль 0 н/о ясно -31.2 -35.0 69 -31 -31 опасность
обморожения
1034.9 949.3 -31.4 1
штиль 0 50 км 6 баллов -27.4 -31.0 71 -27 -27 1035.0 950.7 -31.4
Ю 1 50 км 4/0
[Ci sp]
-18.6 -25.0 57 -21 -20 1029.0 948.0
СВ 1 н/о 1 балл -20.4 -25.2 65 -23 -23 1031.1 949.3
штиль 0 н/о ясно -25.1 -28.1 76 -25 -25 1034.2 950.7 -16.6
штиль 0 н/о ясно -27.2 -30.5 73 -27 -27 1036.3 952.0
штиль 0 н/о ясно -29.1 -32.5 72 -29 -29 1037.0 952.0
штиль 0 н/о ясно -30.3 -34.0 70 -30 -30 1038.9 953.3
СЗ 1 н/о ясно -31.0 -34.8 69 -35 -35 опасность
обморожения
1039.1 953.3 -31.2 1
штиль 0 50 км ясно -27.0 -30.8 70 -27 -25 1039.2 954.7 -31.5
Ю 1 50 км ясно -17.5 -24.5 54 -20 -19 1034.4 953.3
штиль 0 50 км 4 балла -17.9 -23.2 63 -18 -18 1034.6 953.3
СВ 1 н/о 3/0
[Ci sp]
-21.1 -24.6 73 -24 -24 1035.6 953.3 -14.4
С 1 н/о ясно -23.7 -26.4 78 -27 -27 1036.5 953.3
штиль 0 н/о ясно -26.4 -29.5 75 -26 -26 1037.5 953.3
штиль 0 н/о ясно -27.8 -31.1 73 -28 -28 1038.0 953.3
ЮЗ 1 н/о 9/0
[Ac lent Ci sp]
-28.1 -31.4 73 -32 -32 опасность
обморожения
1038.1 953.3 -28.6 1
штиль 0 50 км 2 балла -24.0 -27.2 75 -24 -22 1036.6 953.3
ЮЗ 1 50 км ясно -14.6 -22.3 52 -17 -15 1032.1 952.0
штиль 0 50 км ясно -15.5 -21.7 59 -16 -16 1031.0 950.7
штиль 0 н/о ясно -21.1 -24.0 77 -21 -21 1032.8 950.7 -11.6
штиль 0 н/о 4 балла -24.3 -27.3 76 -24 -24 1033.9 950.7
штиль 0 н/о 3/0
[Ci sp]
-25.6 -28.7 75 -26 -26 1034.4 950.7
штиль 0 н/о ясно -27.4 -30.6 74 -27 -27 1033.5 949.3
штиль 0 н/о 4 балла -28.0 -31.3 73 -28 -28 1033.7 949.3 -28.4
ЮЗ 1 50 км 6 баллов -23.9 -27.3 73 -27 -27 1032.2 949.3
штиль 0 50 км 4 балла -15.9 -23.0 54 -16 -15 1028.2 948.0
штиль 0 50 км 4 балла -17.8 -22.8 65 -18 -18 1028.8 948.0
штиль 0 н/о ясно -22.1 -24.9 78 -22 -22 1028.8 946.7 -15.1
ЮЗ 1 н/о ясно -24.8 -27.6 77 -28 -28 1029.7 946.7
З 1 н/о 2 балла -26.2 -29.4 74 -30 -30 1030.2 946.7
З 1 н/о 1 балл -27.9 -31.2 73 -32 -32 опасность
обморожения
1029.3 945.3
З 1 н/о 2 балла -29.2 -32.8 71 -33 -33 опасность
обморожения
1029.8 945.3 -29.5
З 1 50 км 4 балла -27.0 -30.3 73 -31 -30 опасность
обморожения
1029.0 945.3 -29.6
З 1 50 км 2 балла -16.6 -22.7 59 -19 -18 1022.6 942.7
штиль 0 50 км 2 балла -17.2 -22.4 64 -17 -17 1022.8 942.7
штиль 0 н/о ясно -22.8 -25.6 78 -23 -23 1024.7 942.7 -13.8
штиль 0 н/о ясно -25.6 -28.7 75 -26 -26 1025.7 942.7
штиль 0 н/о ясно -28.0 -31.5 72 -28 -28 1025.0 941.3
В 1 н/о 7 баллов -27.6 -30.9 73 -31 -31 опасность
обморожения
1024.8 941.3
штиль 0 н/о слаб. снег 10 баллов -26.9 -30.3 73 -27 -27 1024.6 941.3 -28.5 0.0
ЮЗ 1 20 км слаб. снег 10 баллов -23.6 -26.8 75 -27 -27 1023.4 941.3
Ю 1 50 км в посл. час снег 10 баллов -17.4 -21.2 72 -20 -20 1021.4 941.3
Местоположение метеостанции Карымская (Забайкальский край, Россия): широта 51.63 долгота 114.30 высота над уровнем моря 616 м.
В архиве по умолчанию представлена погода в Карымской за последнюю неделю. Архивные данные за месяц целиком и за предыдущие месяцы, начиная с января 2011 года, Вы можете получить, выбрав интересующий диапазон дат из раскрывающегося списка и нажав кнопку "Найти!".
*Определитесь, кто Вы:
Внимание! Время в таблицах - всемирное. Для получения местного времени необходимо прибавить поправку, которая равна 9 ч.
Смотрите также архив погоды в соседних городах и на ближайших метеорологических станциях:
Партнеры нашего сайта:      
Пояснения к столбцам:
  • Ветер - указаны скорость ветра в м/с - средняя за 10 мин, порывы в срок и между сроками (в фигурных скобках) и направление, откуда дует ветер: С - северный,
  • СВ - северо-восточный, В - восточный, ЮВ - юго-восточный, Ю - южный, ЮЗ - юго-западный, З - западный, СЗ - северо-западный.
  • Видимость - горизонтальная дальность видимости в метрах или километрах. При видимости от 1 до 10 км при отсутствии осадков обычно наблюдается дымка, при ухудшении видимости до 1 км и менее - туман. В сухую погоду видимость может ухудшаться дымом, пылью или мглою.
  • Явления - указаны атмосферные явления, наблюдавшиеся в срок или в последний час перед сроком; фигурными скобками обозначены явления, наблюдавшиеся между сроками (за 1-3 часа до срока); квадратными скобками обозначены град или гололедные отложения с указанием их диаметра в мм.
  • Облачность - указаны через наклонную черту общая и нижняя облачность в баллах и высота нижней границы облаков в метрах; квадратными скобками обозначены формы облаков: Ci - перистые, Cs - перисто-слоистые, Cc - перисто-кучевые, Ac - высококучевые, As - высокослоистые, Sc - слоисто-кучевые, Ns - слоисто-дождевые, Cu - кучевые, Cb - кучево-дождевые. Подробнее классификацию облаков см. в Атласе облаков (PDF).
  • T - Температура воздуха - температура, измеренная на высоте 2 м над землей.
  • Td - Температура точки росы - температура, при понижении до которой содержащийся в воздухе водяной пар достигнет насыщения.
  • f - Относительная влажность воздуха - влажноcть воздуха, измеренная на высоте 2 м над землей.
  • Te - Эффективная температура - температура, которую ощущает одетый по сезону человек в тени. Характеристика душности погоды. При расчете учитывается влияние влажности воздуха и скорости ветра на теплоощущения человека.
  • Tes - Эффективная температура на солнце - температура, которую ощущает человек, с поправкой на солнечный нагрев. Характеристика знойности погоды. Зависит от высоты солнца над горизонтом, облачности и скорости ветра. Ночью, в пасмурную погоду, а также при ветре 12 м/с и более поправка равна нулю.
  • P - Атмосферное давление - приведенное к уровню моря атмосферное давление.
  • Po - Атмосферное давление - измеренное на уровне метеостанции атмосферное давление.
  • Tmin - Минимальная температура - минимум температуры воздуха на высоте 2 м над землей.
  • Tmax - Максимальная температура - максимум температуры воздуха на высоте 2 м над землей.
  • R - Количество осадков - Количество выпавших осадков за период времени, мм. При наведении курсора мыши на число - период времени, за который выпало указанное количество осадков.
  • R24 - Количество осадков - Количество выпавших осадков за 24 часа, мм.
  • S - Снежный покров - Высота снежного покрова, см. При наведении курсора мыши на число - состояние снежного покрова и степень покрытия местности в баллах.